FW7184 Weather Reports


Display with metric or nautical units.
time (UTC)temp
F
wind
direction
speed
MPH
gust
MPH
rain 1hr
in
rain 24hr
in
rain mn
in
humidity
%
barometer
mb
20260504081927 44 132 0.0 0.0 0.00 0.00 0.00 75 1013.2
20260504081424 44 134 0.0 0.0 0.00 0.00 0.00 73 1013.4
20260504080920 44 136 0.0 0.0 0.00 0.00 0.00 72 1013.1
20260504080417 44 136 0.0 0.0 0.00 0.00 0.00 72 1013.0
20260504070345 46 139 0.0 0.0 0.00 0.00 0.00 65 1012.9
20260504050732 41 128 0.0 0.0 0.00 0.00 0.00 84 1012.8
20260504050229 41 129 0.0 0.0 0.00 0.00 0.00 84 1012.6
20260504045726 42 127 0.0 0.0 0.00 0.00 0.00 83 1012.5
20260504045221 42 128 0.0 0.0 0.00 0.00 0.00 83 1012.6
20260504044719 42 132 0.0 0.0 0.00 0.00 0.00 83 1012.4
20260504044216 42 143 0.0 0.0 0.00 0.00 0.00 82 1012.4
20260504043713 42 132 0.0 0.0 0.00 0.00 0.00 82 1012.5
20260504043210 42 131 0.0 0.0 0.00 0.00 0.00 81 1012.6
20260504042708 41 135 0.0 0.0 0.00 0.00 0.00 83 1012.6
20260504042204 41 129 0.0 0.0 0.00 0.00 0.00 84 1012.4
20260504041700 41 129 0.0 0.0 0.00 0.00 0.00 84 1012.2
20260504041156 41 131 0.0 0.0 0.00 0.00 0.00 84 1012.4
20260504040653 41 129 0.0 0.0 0.00 0.00 0.00 84 1012.1
20260504040150 41 127 0.0 0.0 0.00 0.00 0.00 84 1012.2
20260504035647 41 130 0.0 0.0 0.00 0.00 0.00 83 1012.3
20260504035144 41 127 0.0 0.0 0.00 0.00 0.00 83 1012.3
20260504034641 41 127 0.0 0.0 0.00 0.00 0.00 83 1012.2
20260504034138 41 129 0.0 0.0 0.00 0.00 0.00 83 1012.4
20260504033636 41 128 0.0 0.0 0.00 0.00 0.00 81 1012.4
20260504033133 41 127 0.0 0.0 0.00 0.00 0.00 81 1012.2
20260504032630 42 127 0.0 0.0 0.00 0.00 0.00 81 1012.5
20260504032127 42 128 0.0 0.0 0.00 0.00 0.00 81 1012.4
20260504031624 42 131 0.0 0.0 0.00 0.00 0.00 80 1012.2
20260504031120 42 127 0.0 0.0 0.00 0.00 0.00 80 1012.2
20260504030617 42 127 0.0 0.0 0.00 0.00 0.00 79 1012.4
20260504030114 42 126 0.0 0.0 0.00 0.00 0.00 78 1012.4
20260504025610 42 130 0.0 0.0 0.00 0.00 0.00 77 1012.4
20260504025108 43 126 0.0 0.0 0.00 0.00 0.00 76 1012.3
20260504024605 43 127 0.0 0.0 0.00 0.00 0.00 75 1012.3
20260504024101 43 127 0.0 0.0 0.00 0.00 0.00 75 1012.5
20260504023557 43 128 0.0 0.0 0.00 0.00 0.00 74 1012.6
20260504023054 43 129 0.0 0.0 0.00 0.00 0.00 73 1012.3
20260504022550 44 127 0.0 0.0 0.00 0.00 0.00 72 1012.1
20260504022046 44 127 0.0 0.0 0.00 0.00 0.00 72 1012.2
20260504021544 44 127 0.0 0.0 0.00 0.00 0.00 71 1012.3
20260504021041 44 127 0.0 0.0 0.00 0.00 0.00 69 1012.4
20260504020537 45 123 0.0 0.0 0.00 0.00 0.00 69 1012.3
20260504020034 45 127 0.0 0.0 0.00 0.00 0.00 68 1012.4
20260504015531 45 134 0.0 0.0 0.00 0.00 0.00 67 1012.2
20260504015026 46 126 0.0 0.0 0.00 0.00 0.00 66 1012.2
20260504014522 46 131 0.0 0.0 0.00 0.00 0.00 66 1012.1
20260504014020 46 128 0.0 0.0 0.00 0.00 0.00 65 1012.3
20260504013518 46 127 0.0 0.0 0.00 0.00 0.00 64 1012.2
20260504013015 47 127 0.0 0.0 0.00 0.00 0.00 64 1012.2
20260504012512 47 126 0.0 0.0 0.00 0.00 0.00 63 1012.0
20260504012010 47 127 0.0 0.0 0.00 0.00 0.00 62 1012.1
20260504011506 48 123 0.0 0.0 0.00 0.00 0.00 62 1011.9
20260504011001 48 126 0.0 0.0 0.00 0.00 0.00 60 1011.9
20260504010458 49 126 0.0 0.0 0.00 0.00 0.00 58 1011.9
20260504005954 49 133 0.0 0.0 0.00 0.00 0.00 59 1011.9
20260504005451 50 112 0.0 0.0 0.00 0.00 0.00 57 1011.7
20260504004949 50 126 0.0 0.0 0.00 0.00 0.00 56 1011.7
20260504004446 50 127 0.0 0.0 0.00 0.00 0.00 54 1011.7
20260504003943 51 128 0.0 0.0 0.00 0.00 0.00 52 1011.5
20260504003439 51 129 0.0 0.0 0.00 0.00 0.00 51 1011.6
20260504002936 52 125 0.0 0.0 0.00 0.00 0.00 51 1011.2
20260504002433 53 128 0.0 0.0 0.00 0.00 0.00 48 1011.3
20260504001930 53 130 0.0 0.0 0.00 0.00 0.00 47 1011.0
20260504001428 54 148 1.0 1.0 0.00 0.00 0.00 45 1011.2
20260504000924 54 135 0.0 0.0 0.00 0.00 0.00 44 1011.0
20260504000423 55 132 0.0 0.0 0.00 0.00 0.00 44 1011.2
20260503235918 55 129 0.0 0.0 0.00 0.00 0.00 43 1010.9
20260503235416 55 131 0.0 0.0 0.00 0.00 0.00 41 1010.8
20260503234914 56 133 0.0 0.0 0.00 0.00 0.00 39 1010.7
20260503234411 56 192 0.0 1.0 0.00 0.00 0.00 39 1010.5
20260503233909 57 121 0.0 0.0 0.00 0.00 0.00 38 1010.6
20260503233405 57 91 0.0 1.0 0.00 0.00 0.00 38 1010.5
20260503232902 57 133 0.0 0.0 0.00 0.00 0.00 36 1010.7
20260503232359 57 127 0.0 0.0 0.00 0.00 0.00 37 1010.5
20260503231856 57 29 0.0 1.0 0.00 0.00 0.00 37 1010.4
20260503231354 57 184 3.0 3.0 0.00 0.00 0.00 36 1010.2
20260503230850 57 112 1.0 1.0 0.00 0.00 0.00 35 1010.3
20260503230346 57 97 1.0 1.0 0.00 0.00 0.00 35 1010.3
20260503225844 57 100 1.0 2.0 0.00 0.00 0.00 34 1010.1
20260503225340 57 126 0.0 0.0 0.00 0.00 0.00 34 1010.3
20260503224836 58 51 1.0 1.0 0.00 0.00 0.00 35 1010.1
20260503224333 58 77 0.0 1.0 0.00 0.00 0.00 34 1010.1
20260503223826 58 91 1.0 1.0 0.00 0.00 0.00 33 1010.2
20260503223323 58 80 1.0 1.0 0.00 0.00 0.00 31 1010.1
20260503222818 58 127 1.0 1.0 0.00 0.00 0.00 32 1010.2
20260503222317 58 93 2.0 5.0 0.00 0.00 0.00 31 1010.1
20260503221815 58 117 1.0 1.0 0.00 0.00 0.00 32 1009.9
20260503221314 58 68 2.0 2.0 0.00 0.00 0.00 32 1010.1
20260503220809 58 118 1.0 1.0 0.00 0.00 0.00 31 1010.0
20260503220306 58 105 0.0 1.0 0.00 0.00 0.00 32 1010.2
20260503215803 58 30 3.0 6.0 0.00 0.00 0.00 32 1010.0
20260503215300 58 119 1.0 2.0 0.00 0.00 0.00 31 1010.0
20260503214758 58 128 0.0 1.0 0.00 0.00 0.00 32 1010.2
20260503214254 58 112 0.0 1.0 0.00 0.00 0.00 31 1010.1
20260503213752 58 147 1.0 1.0 0.00 0.00 0.00 30 1010.2
20260503213249 58 75 3.0 7.0 0.00 0.00 0.00 31 1010.2
20260503212746 57 20 3.0 6.0 0.00 0.00 0.00 31 1010.0
20260503212244 57 181 0.0 2.0 0.00 0.00 0.00 32 1010.2
20260503211741 57 134 1.0 3.0 0.00 0.00 0.00 32 1009.9
20260503211237 58 138 2.0 3.0 0.00 0.00 0.00 32 1009.8
20260503210732 58 134 0.0 1.0 0.00 0.00 0.00 32 1010.0
20260503210230 58 120 0.0 0.0 0.00 0.00 0.00 35 1009.9
20260503205725 58 115 0.0 1.0 0.00 0.00 0.00 34 1009.9
20260503205222 58 79 1.0 2.0 0.00 0.00 0.00 34 1010.0
20260503204718 58 75 2.0 3.0 0.00 0.00 0.00 35 1009.9
20260503204216 58 105 1.0 2.0 0.00 0.00 0.00 34 1010.0
20260503203713 58 199 3.0 5.0 0.00 0.00 0.00 34 1009.8
20260503203211 58 188 3.0 3.0 0.00 0.00 0.00 34 1009.9
20260503202708 58 107 2.0 2.0 0.00 0.00 0.00 35 1009.8
20260503202206 57 305 2.0 5.0 0.00 0.00 0.00 33 1010.0
20260503201703 57 216 1.0 1.0 0.00 0.00 0.00 36 1009.9
20260503201200 57 143 4.0 11.0 0.00 0.00 0.00 34 1010.1
20260503200656 57 84 1.0 2.0 0.00 0.00 0.00 36 1009.8
20260503200153 57 62 0.0 0.0 0.00 0.00 0.00 36 1009.9
20260503195650 56 33 3.0 3.0 0.00 0.00 0.00 34 1010.1
20260503195147 56 128 1.0 1.0 0.00 0.00 0.00 35 1010.2
20260503194644 57 92 0.0 1.0 0.00 0.00 0.00 36 1010.3
20260503194139 57 84 0.0 1.0 0.00 0.00 0.00 37 1010.4
20260503193637 57 52 5.0 10.0 0.00 0.00 0.00 36 1010.5
20260503193132 57 73 0.0 1.0 0.00 0.00 0.00 37 1010.4
20260503192628 57 95 0.0 1.0 0.00 0.00 0.00 37 1010.4
20260503192124 57 37 2.0 3.0 0.00 0.00 0.00 36 1010.6
20260503191621 56 111 2.0 2.0 0.00 0.00 0.00 39 1010.7
20260503191118 55 170 2.0 2.0 0.00 0.00 0.00 39 1010.4
20260503190615 55 103 1.0 2.0 0.00 0.00 0.00 38 1010.5
20260503190112 56 22 4.0 6.0 0.00 0.00 0.00 37 1010.5
20260503185608 57 124 1.0 1.0 0.00 0.00 0.00 40 1010.6
20260503185108 56 190 1.0 1.0 0.00 0.00 0.00 39 1010.7
20260503184604 54 79 3.0 6.0 0.00 0.00 0.00 38 1010.7
20260503184101 54 119 0.0 0.0 0.00 0.00 0.00 39 1010.8
20260503183557 54 119 0.0 1.0 0.00 0.00 0.00 41 1010.9
20260503183055 54 63 5.0 10.0 0.00 0.00 0.00 39 1010.9
20260503182553 53 17 3.0 5.0 0.00 0.00 0.00 42 1011.1
20260503182050 53 124 2.0 5.0 0.00 0.00 0.00 42 1011.1
20260503181547 53 55 0.0 0.0 0.00 0.00 0.00 42 1010.9
20260503181044 53 134 0.0 0.0 0.00 0.00 0.00 43 1010.8
20260503180541 53 110 0.0 1.0 0.00 0.00 0.00 42 1011.2
20260503180038 53 107 1.0 1.0 0.00 0.00 0.00 41 1011.1
20260503175535 52 45 1.0 1.0 0.00 0.00 0.00 43 1011.2
20260503175032 54 14 2.0 3.0 0.00 0.00 0.00 43 1010.9
20260503174529 54 126 0.0 1.0 0.00 0.00 0.00 42 1011.2
20260503174025 54 9 2.0 3.0 0.00 0.00 0.00 44 1011.0
20260503173515 53 300 6.0 10.0 0.00 0.00 0.00 42 1011.1
20260503173012 52 159 2.0 3.0 0.00 0.00 0.00 43 1011.3
20260503172510 52 117 3.0 3.0 0.00 0.00 0.00 43 1011.5
20260503172006 52 39 5.0 6.0 0.00 0.00 0.00 43 1011.3
20260503171503 52 80 3.0 5.0 0.00 0.00 0.00 43 1011.5
20260503171001 51 149 1.0 2.0 0.00 0.00 0.00 44 1011.2
20260503170457 52 66 3.0 3.0 0.00 0.00 0.00 44 1011.2
20260503150849 49 44 2.0 5.0 0.00 0.00 0.00 50 1011.6
20260503150345 49 126 0.0 1.0 0.00 0.00 0.00 46 1011.8
20260503140309 48 116 0.0 0.0 0.00 0.00 0.00 58 1012.0
20260503131239 47 111 1.0 1.0 0.00 0.00 0.00 57 1011.9
20260503130736 46 60 3.0 6.0 0.00 0.00 0.00 57 1012.1
20260503130234 46 77 1.0 2.0 0.00 0.00 0.00 59 1011.8
20260503120200 44 139 1.0 1.0 0.00 0.00 0.00 64 1011.8
20260503110627 42 124 0.0 0.0 0.00 0.00 0.00 67 1011.7
20260503110124 42 113 1.0 2.0 0.00 0.00 0.00 67 1011.5